sat.trackr.live / text

‹ back to catalog

STARLINK-4507

NORAD 53403 · 2022-097R

PAYLOAD ACTIVE UNKNOWN

§ Identity

Operator
Country
US
Launch date
2022-08-10
Launch site
AFETR
Launch vehicle
Mass (kg)
RCS (m²)

Purposes: comms

External: N2YO · Heavens-Above · Gunter

§ Orbital elements

Epoch: 2026-09-18T04:27:24.678720Z

Period
94.01 min
Inclination
53.1622°
Eccentricity
0.0001232
Mean motion
15.31699499 rev/d
Perigee alt
469.9 km
Apogee alt
471.6 km
Semi-major
6,848.9 km
B*
2.9769e-5
RAAN
329.6800°
Arg perigee
87.2132°
Mean anomaly
272.9011°
Rev number
22,771

§ Raw data

STARLINK-45071 53403U 22097R   26261.18570230  .00000559  00000+0  29769-4 0  99932 53403  53.1622 329.6800 0001232  87.2132 272.9011 15.31699499227712

JSON: /api/v1/satellites/53403 · /tle

For live sub-satellite position, see the globe view (requires WebGL).

§ Visibility from observer

Set your observer location to see the next 7 days of passes ≥ 10°. The values pass through the URL so the page stays shareable.

No JS? Fill the form by hand. The geolocation button needs JavaScript.